Home > Weather > Olympia > Past weeks

Flag for USA Weather for the Past 2 Weeks in Olympia, Washington, USA

Now
51 °F

Sunny.


Feels Like: 50 °F
Forecast: 41 / 67 °F
Wind: 5 mph from Northeast

Location: Olympia Airport

Current Time: Apr 30, 2016 at 10:11:26 AM

Latest Report: Apr 30, 2016 at 8:54 AM


Visibility: 10 mi

Pressure: 30.38 "Hg

Humidity: 74%

Dew Point: 43 °F

Location of OlympiaLocation

Historic Weather in Olympia — Graph

°F

Olympia Temperature Yesterday

Maximum temperature yesterday: 60 °F (at 3:54 PM)
Minimum temperature yesterday: 44 °F (at 11:54 PM)
Average temperature yesterday: 52 °F

High & Low Weather Summary for the Past Weeks

 TemperatureHumidityPressure
High88 °F (Apr 18, 4:54 PM)100% (Apr 30, 5:03 AM)30.38 "Hg (Apr 30, 5:03 AM)
Low33 °F (Apr 26, 4:58 AM)16% (Apr 18, 3:54 PM)29.61 "Hg (Apr 22, 6:54 AM)
Average55 °F70%30.05 "Hg
* Reported Apr 15 8:54 AM — Apr 30 8:54 AM, Olympia, Weather by CustomWeather, © 2016

Note: Actual official high and low records may vary slightly from our data, if they occured in-between our weather recording intervals... More about our weather records

Advertising

Olympia Weather History for the Previous 24 Hours

Scroll right to see more
 ConditionsComfort  
Time TempWeatherWind HumidityBarometerVisibility
8:54 AM
Sat, Apr 30
51 °FSunny.5 mph74%30.38 "Hg10 mi
7:54 AM44 °FSunny.No wind93%30.37 "Hg9 mi
6:54 AM37 °FPassing clouds.No wind96%30.35 "Hg10 mi
6:01 AM36 °FFog.No wind97%30.34 "Hg1 mi
5:03 AM37 °FFog.No wind100%30.32 "Hg1 mi
3:57 AM38 °FFog.No wind93%30.31 "Hg2 mi
2:54 AM41 °FClear.No wind93%30.29 "Hg10 mi
1:54 AM43 °FClear.3 mph89%30.28 "Hg10 mi
12:54 AM44 °FPassing clouds.5 mph89%30.26 "Hg10 mi
11:54 PM
Fri, Apr 29
44 °FPassing clouds.5 mph93%30.25 "Hg10 mi
10:54 PM46 °FClear.5 mph89%30.24 "Hg10 mi
9:54 PM49 °FClear.5 mph86%30.21 "Hg10 mi
8:54 PM53 °FPartly sunny.No wind77%30.19 "Hg10 mi
7:54 PM56 °FMostly cloudy.No wind77%30.17 "Hg10 mi
6:54 PM57 °FLight rain. Broken clouds.5 mph67%30.16 "Hg10 mi
5:54 PM59 °FPartly sunny.3 mph54%30.15 "Hg10 mi
4:54 PM60 °FBroken clouds.5 mph52%30.14 "Hg10 mi
3:54 PM60 °FPartly sunny.6 mph49%30.14 "Hg10 mi
2:54 PM58 °FPartly sunny.8 mph56%30.13 "Hg10 mi
1:54 PM57 °FPartly sunny.N/A58%30.14 "Hg10 mi
12:54 PM55 °FOvercast.10 mph67%30.13 "Hg10 mi
11:54 AM54 °FOvercast.6 mph67%30.13 "Hg10 mi
10:54 AM53 °FOvercast.7 mph66%30.12 "Hg10 mi
Weather by CustomWeather, © 2016

See weather overviewHow to use our weather pages